Indianapolis Mount Comfort, IN

4:27 PM EST on December 15, 2019 (GMT -0500)
Mount Comfort

Weather History for KMQJ - June, 2019

Change the Weather History Date:

Monday, June 3, 2019

  Actual Average (KEYE) Record (KEYE)
Temperature  
Mean Temperature 62 °F -  
Max Temperature 75 °F 72 °F 88 °F (2002)
Min Temperature 48 °F 56 °F 46 °F (2013)
Degree Days  
Heating Degree Days 4    
Growing Degree Days 12 (Base 50)    
Moisture  
Dew Point 52 °F    
Average Humidity 73    
Maximum Humidity 100    
Minimum Humidity 46    
Precipitation  
Precipitation 0.00 in - - ()
Sea Level Pressure  
Sea Level Pressure 30.09 in    
Wind  
Wind Speed 1 mph (WSW)    
Max Wind Speed 10 mph    
Max Gust Speed 17 mph    
Visibility 10 miles    
Events      
Averages and records for this station are not official NWS values.
T = Trace of Precipitation, MM = Missing Value Source: NWS Daily Summary

Daily Weather History Graph

Daily Weather History Graph

Search for Another Location

Airport or City:

Astronomy

Jun. 03, 2019 Rise Set
Actual Time 6:16 AM EDT 9:07 PM EDT
Civil Twilight 5:44 AM EDT 9:39 PM EDT
Nautical Twilight 5:04 AM EDT 10:19 PM EDT
Astronomical Twilight 4:17 AM EDT 11:06 PM EDT
Moon 6:36 AM EDT (6/3) 9:31 PM EDT (6/3)
Length of Visible Light 15h 54m
Length of Day
14h 50m
New Moon, 0% of the Moon is Illuminated
Jun 3
New Moon
Jun 10
First Quarter
Jun 17
Full
Jun 25
Last Quarter
Jul 2
New

Hourly Weather History & Observations

Time (EDT) Temp. Dew Point Humidity Pressure Visibility Wind Dir Wind Speed Gust Speed Precip Events Conditions
12:03 AM 51.8 °F 50.0 °F 94% 30.02 in 10.0 mi Calm Calm - N/A   Clear
12:25 AM 51.8 °F 51.8 °F 100% 30.02 in 10.0 mi Calm Calm - N/A   Clear
12:46 AM 51.8 °F 50.0 °F 94% 30.02 in 10.0 mi Calm Calm - N/A   Clear
1:09 AM 51.8 °F 50.0 °F 94% 30.02 in 10.0 mi South 3.5 mph - N/A   Clear
1:23 AM 51.8 °F 50.0 °F 94% 30.02 in 10.0 mi Calm Calm - N/A   Clear
1:49 AM 51.8 °F 50.0 °F 94% 30.02 in 10.0 mi Calm Calm - N/A   Clear
2:08 AM 50.0 °F 50.0 °F 100% 30.02 in 10.0 mi Calm Calm - N/A   Clear
2:25 AM 50.0 °F 50.0 °F 100% 30.02 in 10.0 mi Calm Calm - N/A   Clear
2:45 AM 50.0 °F 50.0 °F 100% 30.02 in 10.0 mi Calm Calm - N/A   Clear
3:07 AM 50.0 °F 50.0 °F 100% 30.02 in 10.0 mi Calm Calm - N/A   Clear
3:25 AM 50.0 °F 50.0 °F 100% 30.03 in 10.0 mi Calm Calm - N/A   Clear
3:44 AM 48.2 °F 48.2 °F 100% 30.03 in 10.0 mi Calm Calm - N/A   Clear
4:24 AM 50.0 °F 50.0 °F 100% 30.04 in 10.0 mi Calm Calm - N/A   Clear
4:47 AM 50.0 °F 50.0 °F 100% 30.05 in 10.0 mi Calm Calm - N/A   Clear
5:10 AM 48.2 °F 48.2 °F 100% 30.06 in 10.0 mi Calm Calm - N/A   Clear
5:28 AM 48.2 °F 48.2 °F 100% 30.06 in 10.0 mi Calm Calm - N/A   Clear
5:46 AM 48.2 °F 48.2 °F 100% 30.06 in 10.0 mi Calm Calm - N/A   Clear
6:08 AM 48.2 °F 48.2 °F 100% 30.07 in 10.0 mi Calm Calm - N/A   Clear
6:23 AM 48.2 °F 48.2 °F 100% 30.08 in 10.0 mi Calm Calm - N/A   Clear
6:44 AM 48.2 °F 48.2 °F 100% 30.09 in 10.0 mi Calm Calm - N/A   Clear
7:07 AM 48.2 °F 48.2 °F 100% 30.10 in 10.0 mi Calm Calm - N/A   Clear
7:28 AM 50.0 °F 50.0 °F 100% 30.10 in 10.0 mi Calm Calm - N/A   Clear
7:49 AM 51.8 °F 51.8 °F 100% 30.10 in 10.0 mi Calm Calm - N/A   Clear
8:06 AM 53.6 °F 53.6 °F 100% 30.10 in 10.0 mi Calm Calm - N/A   Clear
8:28 AM 55.4 °F 53.6 °F 94% 30.11 in 10.0 mi Calm Calm - N/A   Clear
8:48 AM 57.2 °F 55.4 °F 94% 30.12 in 10.0 mi Calm Calm - N/A   Clear
9:08 AM 59.0 °F 51.8 °F 77% 30.12 in 10.0 mi Calm Calm - N/A   Clear
9:26 AM 60.8 °F 50.0 °F 68% 30.14 in 10.0 mi Calm Calm - N/A   Clear
9:47 AM 62.6 °F 48.2 °F 59% 30.14 in 10.0 mi Calm Calm - N/A   Clear
10:05 AM 64.4 °F 48.2 °F 56% 30.15 in 10.0 mi Calm Calm - N/A   Clear
10:29 AM 64.4 °F 46.4 °F 52% 30.15 in 10.0 mi SSW 4.6 mph - N/A   Clear
10:47 AM 66.2 °F 48.2 °F 52% 30.15 in 10.0 mi SSE 3.5 mph - N/A   Clear
11:04 AM 66.2 °F 48.2 °F 52% 30.14 in 10.0 mi Calm Calm - N/A   Clear
11:25 AM 66.2 °F 48.2 °F 52% 30.14 in 10.0 mi Calm Calm - N/A   Clear
11:45 AM 68.0 °F 50.0 °F 52% 30.15 in 10.0 mi West 4.6 mph - N/A   Clear
12:04 PM 68.0 °F 50.0 °F 52% 30.14 in 10.0 mi South 6.9 mph - N/A   Clear
12:25 PM 69.8 °F 50.0 °F 49% 30.14 in 10.0 mi SW 3.5 mph - N/A   Clear
12:42 PM 69.8 °F 50.0 °F 49% 30.13 in 10.0 mi Calm Calm - N/A   Clear
1:02 PM 69.8 °F 50.0 °F 49% 30.13 in 10.0 mi Calm Calm - N/A   Clear
1:24 PM 71.6 °F 50.0 °F 46% 30.13 in 10.0 mi West 3.5 mph - N/A   Clear
1:42 PM 71.6 °F 51.8 °F 50% 30.13 in 10.0 mi South 5.8 mph - N/A   Clear
2:03 PM 71.6 °F 51.8 °F 50% 30.13 in 10.0 mi Calm Calm - N/A   Clear
2:22 PM 73.4 °F 53.6 °F 50% 30.13 in 10.0 mi West 5.8 mph - N/A   Clear
2:42 PM 73.4 °F 51.8 °F 47% 30.13 in 10.0 mi NW 8.1 mph - N/A   Clear
3:03 PM 73.4 °F 53.6 °F 50% 30.13 in 10.0 mi WNW 3.5 mph - N/A   Clear
3:25 PM 73.4 °F 53.6 °F 50% 30.12 in 10.0 mi WSW 4.6 mph - N/A   Clear
3:43 PM 75.2 °F 53.6 °F 47% 30.12 in 10.0 mi NW 4.6 mph 17.3 mph N/A   Clear
4:02 PM 75.2 °F 53.6 °F 47% 30.12 in 10.0 mi Calm Calm - N/A   Clear
4:22 PM 75.2 °F 53.6 °F 47% 30.12 in 10.0 mi West 10.4 mph - N/A   Scattered Clouds
4:44 PM 75.2 °F 53.6 °F 47% 30.11 in 10.0 mi West 6.9 mph - N/A   Clear
5:03 PM 75.2 °F 55.4 °F 50% 30.10 in 10.0 mi SW 6.9 mph - N/A   Clear
5:25 PM 75.2 °F 55.4 °F 50% 30.10 in 10.0 mi NW 6.9 mph - N/A   Scattered Clouds
5:44 PM 75.2 °F 55.4 °F 50% 30.10 in 10.0 mi West 6.9 mph - N/A   Clear
6:02 PM 75.2 °F 55.4 °F 50% 30.10 in 10.0 mi West 4.6 mph - N/A   Clear
6:23 PM 75.2 °F 53.6 °F 47% 30.10 in 10.0 mi WNW 6.9 mph - N/A   Clear
6:44 PM 73.4 °F 55.4 °F 53% 30.09 in 10.0 mi NW 6.9 mph - N/A   Clear
7:02 PM 73.4 °F 55.4 °F 53% 30.09 in 10.0 mi Calm Calm - N/A   Clear
7:23 PM 73.4 °F 55.4 °F 53% 30.09 in 10.0 mi Calm Calm - N/A   Clear
7:42 PM 71.6 °F 55.4 °F 57% 30.09 in 10.0 mi NW 4.6 mph - N/A   Clear
8:04 PM 71.6 °F 57.2 °F 60% 30.09 in 10.0 mi Calm Calm - N/A   Clear
8:22 PM 71.6 °F 55.4 °F 57% 30.09 in 10.0 mi Calm Calm - N/A   Clear
8:42 PM 69.8 °F 59.0 °F 68% 30.09 in 10.0 mi Calm Calm - N/A   Clear
9:02 PM 69.8 °F 55.4 °F 60% 30.09 in 10.0 mi Calm Calm - N/A   Clear
9:22 PM 66.2 °F 62.6 °F 88% 30.10 in 10.0 mi Calm Calm - N/A   Clear
9:42 PM 64.4 °F 59.0 °F 83% 30.10 in 10.0 mi Calm Calm - N/A   Clear
10:04 PM 62.6 °F 59.0 °F 88% 30.11 in 10.0 mi Calm Calm - N/A   Clear
10:23 PM 64.4 °F 57.2 °F 77% 30.11 in 10.0 mi Calm Calm - N/A   Clear
10:44 PM 62.6 °F 57.2 °F 82% 30.12 in 10.0 mi Calm Calm - N/A   Clear
11:03 PM 60.8 °F 59.0 °F 94% 30.12 in 10.0 mi South 4.6 mph - N/A   Clear
11:23 PM 62.6 °F 57.2 °F 82% 30.12 in 10.0 mi SSW 4.6 mph - N/A   Clear
11:45 PM 60.8 °F 59.0 °F 94% 30.12 in 10.0 mi SSW 4.6 mph - N/A   Clear